Vorticity
7 9 9 9 9 8 8 8 8 8 8 8 8 7 7 7 8 8 8 8 8 8 8 7 6 7 7 7 8 8 7 7 7 7 7 6 5 5 4 4 6 6
7 7 9 9 8 7 7 7 7 7 7 7 8 7 7 7 8 8 8 8 8 7 6 6 6 6 8 8 8 8 7 7 7 6 7 6 5 5 6 6 8 8
7 6 7 8 7 7 7 7 7 6 7 7 6 6 7 7 7 8 8 7 7 6 5 5 6 7 7 8 8 8 8 7 7 7 6 6 7 8 8 7 8 10
6 6 6 6 6 7 6 6 6 6 6 6 6 6 6 6 7 7 7 6 6 5 5 6 6 7 7 7 8 7 6 7 7 6 6 6 7 8 8 8 8 9
6 5 5 6 5 6 6 5 6 6 6 7 6 7 7 7 8 7 6 6 6 6 6 6 6 7 7 7 7 7 6 8 7 6 7 7 8 8 8 8 7 6
6 5 4 5 5 5 6 6 6 5 6 7 7 7 8 7 8 8 7 6 7 7 7 7 7 6 7 7 7 8 7 7 7 7 8 8 8 9 8 8 7 6
5 6 5 5 4 5 5 6 6 6 6 7 7 7 7 7 8 8 8 7 8 8 8 8 8 7 7 7 7 8 7 7 8 7 8 7 6 7 8 8 8 7
5 5 5 5 5 4 5 5 6 6 7 6 7 7 7 7 8 8 9 9 9 9 9 9 9 8 7 7 8 7 7 8 8 8 9 7 7 7 7 8 8 8
7 5 4 5 5 5 4 5 6 6 7 7 6 7 7 7 7 7 8 9 9 10 10 11 10 10 9 9 9 8 8 9 8 8 8 6 6 5 5 8 8 8
8 8 6 3 3 5 4 4 5 6 6 6 6 6 7 7 7 7 7 7 9 9 9 10 11 10 10 10 10 9 9 10 9 7 6 5 6 5 5 6 7 8
5 6 5 5 4 4 4 4 4 5 6 6 6 6 6 7 7 7 8 7 7 8 8 8 9 10 10 9 9 10 9 8 6 6 5 5 5 5 5 6 6 7
7 5 5 7 7 4 3 5 4 4 5 5 6 5 5 6 7 7 7 7 7 8 7 7 7 8 9 9 9 9 8 6 5 4 4 5 4 4 4 4 4 6
12 11 8 5 6 6 5 4 4 5 4 3 4 5 4 4 5 6 6 6 6 7 7 7 7 7 7 7 8 8 8 6 4 4 3 3 3 3 3 2 3 4
9 12 13 8 4 6 8 5 3 4 4 4 5 4 4 4 4 5 6 6 6 6 7 8 8 8 7 6 6 7 7 6 5 4 3 3 4 4 6 7 5 4
5 7 15 17 9 4 6 6 6 6 3 4 5 4 4 4 4 4 5 5 5 5 5 6 7 8 7 7 7 7 6 6 6 5 5 5 6 5 6 8 7 6
4 4 12 20 17 10 4 1 4 8 6 4 4 4 4 4 3 4 4 4 5 4 4 5 5 5 6 7 8 8 8 8 7 7 7 7 8 8 9 8 4 5
7 5 4 10 17 17 10 3 3 7 7 7 6 4 4 4 3 4 4 3 3 4 4 3 3 4 5 6 6 6 7 7 6 7 7 7 9 9 9 6 2 1
11 10 5 5 9 12 12 12 11 9 6 6 7 6 5 4 3 3 3 3 3 4 5 5 4 4 3 3 4 5 5 5 4 5 5 5 7 7 7 6 4 4
10 12 13 8 4 4 7 10 14 15 12 8 5 6 7 7 6 3 3 3 3 2 3 3 3 4 3 4 3 3 4 4 3 4 4 3 4 5 5 5 5 5
8 12 16 12 5 5 5 6 8 10 14 13 8 5 6 7 6 6 6 5 3 3 4 4 4 3 3 4 4 3 4 3 3 4 4 3 3 3 3 2 3 5
8 12 13 12 14 11 4 3 3 3 10 16 14 10 5 0 0 4 7 8 6 4 3 2 4 5 4 3 3 3 3 3 3 4 2 2 3 3 3 2 1 3
11 11 8 10 19 18 8 4 3 2 8 13 15 16 13 9 8 5 6 10 11 10 9 6 4 6 6 6 5 4 4 4 4 3 2 3 4 4 4 5 3 4
15 13 8 7 15 20 17 11 5 2 5 7 11 18 22 25 19 5 1 6 3 2 9 10 7 5 4 5 6 5 4 5 4 4 4 5 6 6 6 6 6 7
15 15 12 8 8 13 19 21 13 8 9 7 6 8 14 26 30 16 4 3 -0 0 6 8 8 8 7 8 9 7 5 4 4 4 5 6 7 8 8 9 8 9
13 15 14 11 8 6 10 16 15 13 14 12 8 4 2 15 32 31 17 6 2 2 2 1 4 8 9 8 8 9 10 10 8 8 7 7 8 8 8 8 9 10
12 13 13 13 14 11 11 14 16 16 15 12 11 10 4 6 17 23 22 18 15 13 9 5 4 5 5 2 2 6 9 7 7 10 8 6 7 8 8 7 7 9
Height
5891 5892 5893 5894 5894 5895 5896 5896 5897 5898 5898 5899 5900 5901 5902 5903 5903 5904 5905 5906 5907 5908 5909 5909 5909 5910 5910 5910 5910 5911 5911 5911 5912 5912 5912 5912 5913 5913 5913 5913 5912 5912
5891 5892 5893 5894 5894 5895 5895 5896 5897 5898 5899 5900 5900 5901 5902 5903 5903 5904 5905 5906 5907 5908 5908 5909 5909 5909 5909 5909 5910 5910 5911 5911 5912 5912 5912 5913 5913 5913 5912 5912 5912 5912
5890 5891 5892 5893 5893 5894 5895 5896 5897 5898 5899 5900 5900 5901 5902 5902 5903 5904 5904 5905 5906 5907 5907 5908 5908 5908 5909 5909 5909 5910 5911 5911 5911 5912 5912 5913 5913 5913 5912 5912 5912 5912
5889 5890 5891 5892 5893 5894 5895 5895 5896 5897 5898 5899 5900 5901 5901 5902 5902 5903 5904 5904 5905 5906 5906 5907 5907 5907 5908 5908 5909 5910 5910 5911 5911 5911 5911 5912 5912 5912 5912 5912 5912 5912
5888 5889 5890 5891 5892 5893 5894 5895 5896 5897 5897 5898 5899 5900 5900 5901 5901 5902 5902 5903 5904 5905 5905 5906 5906 5907 5907 5908 5908 5909 5910 5910 5910 5910 5911 5911 5911 5911 5912 5911 5911 5911
5887 5888 5889 5890 5891 5892 5893 5894 5895 5896 5897 5897 5898 5899 5899 5900 5900 5901 5901 5902 5903 5904 5904 5905 5905 5906 5906 5907 5908 5908 5909 5910 5910 5910 5910 5911 5911 5911 5911 5911 5911 5911
5887 5887 5888 5889 5890 5891 5892 5893 5894 5895 5895 5896 5897 5898 5898 5899 5900 5900 5901 5901 5902 5903 5903 5904 5904 5905 5905 5906 5907 5907 5908 5909 5909 5909 5910 5910 5910 5910 5911 5911 5911 5910
5885 5886 5887 5888 5888 5889 5890 5891 5892 5893 5894 5895 5896 5897 5897 5898 5899 5900 5900 5901 5901 5902 5903 5903 5903 5904 5904 5905 5906 5907 5907 5907 5908 5909 5909 5909 5909 5910 5910 5910 5910 5910
5883 5884 5885 5886 5887 5888 5889 5890 5891 5892 5893 5894 5895 5895 5896 5897 5898 5899 5899 5900 5900 5901 5902 5902 5902 5903 5903 5904 5905 5905 5906 5906 5907 5907 5908 5908 5908 5909 5909 5909 5909 5909
5880 5882 5884 5885 5885 5886 5886 5888 5889 5890 5891 5892 5893 5894 5895 5896 5897 5897 5898 5898 5899 5899 5900 5901 5901 5902 5902 5903 5903 5904 5905 5905 5905 5906 5907 5907 5907 5908 5908 5908 5908 5908
5879 5880 5881 5883 5883 5883 5884 5885 5886 5888 5889 5890 5891 5892 5893 5894 5895 5896 5896 5897 5897 5898 5898 5899 5899 5900 5901 5902 5902 5902 5903 5903 5904 5905 5905 5906 5906 5907 5907 5907 5907 5907
5876 5877 5878 5879 5881 5881 5881 5882 5883 5885 5886 5887 5889 5890 5891 5892 5893 5894 5895 5895 5895 5896 5896 5897 5897 5898 5898 5899 5900 5901 5901 5902 5902 5903 5904 5904 5905 5905 5905 5905 5905 5906
5874 5874 5873 5875 5877 5878 5879 5879 5880 5881 5883 5884 5885 5887 5888 5889 5890 5892 5892 5893 5894 5894 5895 5895 5896 5896 5896 5897 5898 5899 5899 5900 5900 5901 5902 5903 5903 5903 5903 5903 5903 5903
5871 5871 5870 5871 5874 5876 5877 5878 5879 5879 5880 5881 5882 5883 5885 5886 5887 5888 5889 5890 5891 5892 5893 5893 5894 5894 5895 5895 5896 5897 5897 5898 5899 5900 5900 5901 5901 5901 5901 5901 5901 5901
5867 5868 5868 5869 5872 5873 5875 5877 5878 5878 5878 5878 5879 5880 5881 5883 5883 5885 5886 5887 5888 5889 5890 5891 5892 5893 5893 5894 5895 5895 5896 5896 5897 5897 5898 5898 5898 5899 5899 5899 5899 5899
5864 5864 5865 5868 5870 5870 5869 5872 5874 5875 5875 5876 5877 5878 5879 5880 5880 5881 5883 5884 5885 5886 5887 5888 5889 5890 5891 5892 5893 5894 5894 5894 5894 5894 5894 5895 5895 5896 5897 5896 5897 5897
5860 5861 5862 5866 5868 5867 5866 5867 5869 5870 5872 5873 5874 5875 5876 5877 5878 5878 5880 5881 5882 5883 5884 5885 5886 5887 5889 5890 5891 5891 5892 5892 5892 5892 5891 5891 5892 5894 5895 5895 5895 5895
5856 5858 5859 5862 5865 5865 5864 5864 5865 5866 5868 5869 5870 5871 5873 5873 5874 5875 5876 5877 5879 5880 5881 5882 5883 5884 5885 5887 5887 5888 5889 5889 5889 5889 5889 5889 5891 5893 5894 5893 5892 5891
5853 5855 5856 5857 5860 5861 5861 5862 5863 5863 5864 5865 5866 5866 5867 5869 5871 5872 5873 5873 5875 5876 5876 5878 5879 5881 5882 5883 5884 5885 5885 5886 5886 5886 5886 5888 5889 5890 5890 5889 5888 5888
5849 5851 5852 5853 5854 5855 5857 5859 5861 5860 5859 5859 5860 5861 5863 5866 5868 5869 5870 5871 5871 5872 5872 5873 5875 5877 5878 5879 5880 5881 5881 5882 5882 5882 5884 5886 5886 5886 5886 5886 5885 5885
5845 5846 5847 5848 5849 5849 5851 5854 5856 5855 5854 5854 5856 5858 5861 5863 5864 5865 5867 5868 5868 5869 5869 5870 5873 5874 5875 5876 5877 5877 5877 5878 5877 5878 5881 5883 5882 5882 5883 5883 5882 5882
5841 5842 5842 5843 5844 5844 5846 5848 5850 5850 5850 5851 5853 5854 5856 5857 5858 5859 5861 5862 5864 5865 5866 5867 5870 5871 5871 5872 5873 5873 5873 5873 5873 5875 5877 5878 5878 5879 5879 5878 5878 5878
5837 5838 5838 5838 5838 5839 5841 5843 5844 5845 5847 5849 5850 5850 5851 5852 5853 5854 5856 5857 5859 5860 5862 5863 5865 5866 5866 5867 5868 5868 5868 5868 5869 5872 5873 5873 5874 5874 5873 5873 5874 5874
5833 5834 5834 5833 5834 5836 5838 5840 5841 5841 5843 5844 5845 5845 5846 5848 5850 5851 5852 5853 5854 5856 5857 5859 5861 5861 5861 5862 5862 5862 5862 5863 5866 5868 5868 5869 5869 5869 5868 5868 5869 5869
5829 5829 5829 5830 5831 5832 5834 5837 5838 5838 5838 5838 5838 5839 5840 5842 5845 5847 5848 5849 5850 5850 5852 5855 5856 5856 5856 5857 5858 5858 5857 5859 5861 5863 5864 5864 5864 5864 5863 5863 5863 5864
5824 5824 5825 5826 5827 5829 5830 5832 5834 5834 5834 5834 5834 5834 5836 5838 5840 5842 5843 5845 5845 5846 5849 5851 5851 5851 5852 5852 5852 5853 5853 5854 5857 5859 5859 5859 5859 5859 5858 5858 5859 5859